Location: Laas
(43.4693°N, 0.3073°E)
Time: 15:35:07
(UTC+00:00)

CZ-2D R/B - Pass Details

Date: 25 October 2020
Orbit: 521 x 538 km, 97.4° (Epoch: 24 November)

Event Time Altitude Azimuth Distance (km) Brightness Sun altitude
Rises 18:02:19 0° 157° (SSE) 2,653 6.6 -12.0°
Reaches altitude 10° 18:04:26 10° 153° (SSE) 1,766 5.7 -12.4°
Maximum altitude 18:08:10 57° 74° (ENE) 627 3.2 -13.1°
Drops below altitude 10° 18:11:55 10° 356° (N) 1,772 5.9 -13.8°
Sets 18:14:03 0° 352° (N) 2,664 6.9 -14.2°
